sat.trackr.live / text

‹ back to catalog

ONEWEB-0168

NORAD 48068 · 2021-025AC

PAYLOAD ACTIVE UNKNOWN

§ Identity

Operator
Country
UK
Launch date
2021-03-25
Launch site
VOSTO
Launch vehicle
Mass (kg)
RCS (m²)

Purposes: comms

External: N2YO · Heavens-Above · Gunter

§ Orbital elements

Epoch: 2026-09-20T01:25:09.765120Z

Period
109.63 min
Inclination
87.8918°
Eccentricity
0.0001832
Mean motion
13.13469438 rev/d
Perigee alt
1,208.4 km
Apogee alt
1,211.2 km
Semi-major
7,587.9 km
B*
-7.4445e-4
RAAN
301.3487°
Arg perigee
93.3836°
Mean anomaly
266.7502°
Rev number
26,601

§ Raw data

ONEWEB-01681 48068U 21025AC  26263.05914080 -.00000259  00000+0 -74445-3 0  99962 48068  87.8918 301.3487 0001832  93.3836 266.7502 13.13469438266016

JSON: /api/v1/satellites/48068 · /tle

For live sub-satellite position, see the globe view (requires WebGL).

§ Visibility from observer

Set your observer location to see the next 7 days of passes ≥ 10°. The values pass through the URL so the page stays shareable.

No JS? Fill the form by hand. The geolocation button needs JavaScript.